Regional Weather Roundup
Issued by NWS

Home | Current Version | Previous Version | Graphics & Text | Print | Product List | Glossary On
Versions: 1 2 3 4 5 6 7 8 9 10 11 12 13 14 15 16 17 18 19 20 21 22 23 24 25 26 27 28 29 30 31 32 33 34 35 36 37 38 39 40 41 42 43 44 45 46 47 48 49 50
000
ASUS43 KMPX 120910
RWRMN
WEATHER ROUNDUP FOR MINNESOTA
NATIONAL WEATHER SERVICE TWIN CITIES/CHANHASSEN MN
300 AM CST TUE DEC 12 2017


NOTE: "FAIR" INDICATES FEW OR NO CLOUDS BELOW 12,000 FEET WITH NO
SIGNIFICANT WEATHER AND/OR OBSTRUCTIONS TO VISIBILITY. N/A MEANS
CURRENT SKY AND/OR WEATHER CONDITIONS ARE NOT AVAILABLE.

MNZ060>063-068>070-121000-
   Twin Cities Metro

CITY           SKY/WX    TMP DP  RH WIND       PRES   REMARKS
TWIN CITIES    CLEAR     10   5  80 NW13      30.26R WCI  -5
ST PAUL        CLEAR     10   4  76 NW13      30.27R WCI  -5
CRYSTAL        CLEAR      9   1  70 NW10      30.25R WCI  -5
BLAINE         CLEAR     10   3  72 NW10      30.24R WCI  -3
LAKEVILLE      CLEAR      9   5  85 NW13      30.23S WCI  -7
EDEN PRAIRIE   CLEAR     11   4  73 NW8       30.24S WCI  -1
SOUTH ST PAUL  CLEAR     11   4  74 NW10      30.24R WCI  -2
LAKE ELMO      FAIR      10   5  79 NW9       30.24R WCI  -2
$$
MNZ001>005-007-008-013>017-022>024-027-028-121000-
   Northwest Minnesota

CITY           SKY/WX    TMP DP  RH WIND       PRES   REMARKS
BEMIDJI        CLOUDY    -2  -5  87 W5        30.18F WCI -12
HALLOCK        CLOUDY    10   9  92 S8        30.19F WCI  -1
ROSEAU         CLOUDY    -6  -9  84 S6        30.19F WCI -18
WARROAD        CLOUDY    -4  -8  84 CALM      30.19F
THIEF RVR FALL CLOUDY     4   2  91 SW7       30.22F WCI  -8
CROOKSTON      CLOUDY    10   9  92 S7        30.25F WCI   0
FOSSTON        FLURRIES   0  -2  92 SW6       30.22F WCI -12
DETROIT LAKES  CLOUDY     7   3  85 W7        30.24F WCI  -5
MOORHEAD       CLOUDY     7   3  85 CALM      30.29S
PARK RAPIDS    CLOUDY    -6 -10  83 W3        30.20S
MAHNOMEN       CLOUDY     5   2  88 W9        30.23F WCI  -9
$$
MNZ006-009>011-018-025>026-121000-
   North Central Minnesota

CITY           SKY/WX    TMP DP  RH WIND       PRES   REMARKS
BAUDETTE       CLOUDY    -3  -7  82 W3        30.18F
INTL FALLS     CLOUDY    -4  -8  83 W5        30.17F WCI -15
WASKISH        CLOUDY     0  -2  92 CALM      30.19F
LONGVILLE      CLEAR     -2  -6  84 CALM      30.19F
GRAND RAPIDS   CLOUDY     0  -3  87 NW6       30.19F WCI -12
CRANE LAKE     CLOUDY     1  -2  85 CALM      30.17F
ORR            CLOUDY    -2  -8  78 NW3       30.12F
COOK           CLOUDY     0  -2  92 CALM      30.14F
WALKER         FAIR       0  -4  86 CALM      30.19F
$$
MNZ012-019>021-037-121000-
   Northeast Minnesota

CITY           SKY/WX    TMP DP  RH WIND       PRES   REMARKS
DULUTH         PTCLDY     1  -2  87 NW7       30.13S WCI -12
ELY            PTCLDY     0  -6  78 NW3       30.11F
HIBBING        CLOUDY    -1  -3  91 NW7       30.14F WCI -14
EVELETH        MOCLDY     2  -4  75 NW6       30.14F HAZE    WCI  -9
DULUTH HARBOR  PTCLDY     9   1  72 W7        30.22F WCI  -3
TWO HARBORS    CLEAR      3  -2  78 W5        30.13S WCI  -6
SILVER BAY     CLEAR      3  -2  78 CALM      30.11S
GRAND MARAIS     N/A      7  -3  64 VRB5      30.14F WCI  -2
G MARAIS ARPRT PTCLDY    -2  -9  71 NW7G17    30.00F WCI -16
$$
MNZ029>031-032-039>041-046>048-054>057-064-121000-
   West Central Minnesota

CITY           SKY/WX    TMP DP  RH WIND       PRES   REMARKS
FERGUS FALLS   MOCLDY     3   1  92 NW5       30.32F WCI  -6
WHEATON        CLOUDY     9   5  85 SW3       30.31F
MORRIS         CLOUDY     7   3  85 W7        30.28F WCI  -5
ALEXANDRIA     CLOUDY     5   1  83 W9        30.26S WCI  -9
ELBOW LAKE     FAIR       5   2  88 CALM      30.28F
WADENA         CLOUDY     1  -2  85 W6        30.22F WCI -10
GLENWOOD       CLOUDY     5   1  85 W9        30.27S WCI  -9
APPLETON         N/A      9   5  85 W3        30.32S
BENSON         CLOUDY     7   3  85 N6        30.31F WCI  -3
ORTONVILLE     CLOUDY    10   7  85 CALM      30.30F
MADISON        CLOUDY    10   9  92 W5        30.33S WCI   2
WILLMAR        FAIR       9   5  85 W6        30.30R WCI  -1
$$
MNZ033>034-036-042>043-049>051-058-059-121000-
   Central Minnesota

CITY           SKY/WX    TMP DP  RH WIND       PRES   REMARKS
ST CLOUD       CLOUDY     4   1  88 NW8       30.26R WCI  -9
SAUK CENTRE    FAIR       2  -1  85 W7        30.27R WCI -10
PAYNESVILLE    CLOUDY     4   2  90 W7        30.28S WCI  -8
AITKIN         PTCLDY    -2  -6  84 CALM      30.19F
PINE RIVER     CLOUDY    -2  -6  84 CALM      30.24S
BRAINERD       CLOUDY     3  -2  79 W6        30.23R WCI  -8
STAPLES        CLOUDY    -2  -6  84 W7        30.22F WCI -16
LONG PRAIRIE   FAIR       3   0  85 W7        30.25S WCI  -9
LITTLE FALLS   CLOUDY     3  -4  72 NW3       30.26S
LITCHFIELD     CLEAR      9   3  78 NW8       30.27F WCI  -4
BUFFALO        CLEAR      8   2  77 W7        30.28R WCI  -3
MAPLE LAKE     CLEAR      8   4  82 NW7       30.27S WCI  -3
HUTCHINSON     CLOUDY     9   4  81 W7        30.28S WCI  -2
$$
MNZ037-044-045-052-053-121000-
   East Central Minnesota

CITY           SKY/WX    TMP DP  RH WIND       PRES   REMARKS
PRINCETON      CLOUDY     5   1  85 W6        30.24S WCI  -6
MORA           CLOUDY     5   1  85 W5        30.24S WCI  -4
CAMBRIDGE      CLOUDY     7   0  72 W6        30.24S WCI  -3
RUSH CITY      CLOUDY     7   2  82 NW6       30.23S WCI  -3
MOOSE LAKE     FLURRIES   5   1  85 CALM      30.18S
HINCKLEY       FAIR       9   3  78 NW3       30.21S
CLOQUET        CLEAR      3  -2  78 CALM      30.16R
MCGREGOR       PTCLDY     3   1  92 W5        30.19F WCI  -6
$$
MNZ071>073-080-081-089-090-097-098-121000-
   Southwest Minnesota

CITY           SKY/WX    TMP DP  RH WIND       PRES   REMARKS
MONTEVIDEO     CLOUDY     9   7  92 NW3       30.32S
GRANITE FALLS  CLOUDY    11   8  86 W8        30.33S WCI  -1
CANBY          CLOUDY    12   9  88 CALM      30.32F
MARSHALL       CLOUDY     9   6  88 W5        30.31F WCI   1
REDWOOD FALLS  CLEAR     11   4  73 NW10      30.30S WCI  -3
OLIVIA         CLOUDY    10   5  79 NW9       30.29S WCI  -2
PIPESTONE      CLOUDY    12   9  85 NW7       30.27F WCI   2
WINDOM           N/A     12   0  57 NW13      30.26F WCI  -3
WORTHINGTON    CLEAR     12   9  87 NW10      30.28S WCI  -1
JACKSON        CLEAR     12   9  85 MISG      30.26S
TRACY          CLEAR     13  10  90 NW8       30.29S WCI   2
SLAYTON        CLEAR     11   8  89 NW10      30.28S WCI  -3
$$
MNZ065>067-074>077-082>085-091>093-121000-
   South Central Minnesota

CITY           SKY/WX    TMP DP  RH WIND       PRES   REMARKS
MANKATO        CLEAR     10   5  80 NW12      30.27S WCI  -5
NEW ULM        CLEAR     10   3  72 NW10      30.29R WCI  -3
ST JAMES       CLEAR     10   7  85 NW13      30.29S WCI  -5
FAIRMONT       CLEAR     12   7  80 NW16      30.27S WCI  -5
GLENCOE        CLEAR     10   6  81 W9        30.27S WCI  -3
FARIBAULT      CLEAR     10   7  85 NW8       30.24R WCI  -1
OWATONNA       CLEAR     10   5  79 NW13      30.22S WCI  -5
WASECA         CLEAR     12   9  85 NW10      30.25S WCI  -1
ALBERT LEA     CLEAR     10   5  79 NW9       30.22R WCI  -2
$$
MNZ078>079-086>088-094>096-121000-
   Southeast Minnesota

CITY           SKY/WX    TMP DP  RH WIND       PRES   REMARKS
ROCHESTER      PTCLDY    12   9  87 NW17      30.18R WCI  -5
RED WING       CLEAR     12   5  73 NW8       30.22R WCI   1
STANTON        CLEAR     12   7  77 NW12      30.22R WCI  -2
DODGE CENTER   CLEAR     10   7  85 NW15      30.18S WCI  -6
WINONA         MOCLDY    18  10  73 NW7       30.21R WCI   8
PRESTON        PTCLDY    14   9  83 NW15G21   30.16S WCI  -2
$$
ABBREVIATIONS USED IN REMARKS
   TC - TEMPERATURES IN CELSIUS
  WCI - WIND CHILL INDEX
   HX - HEAT INDEX
  VSB - VISIBILITY
$$



USA.gov is the U.S. government's official web portal to all federal, state and local government web resources and services.